User: anonymous   Login
Location: Unspecified
(0.0000°N, 0.0000°E)
Time: 11:22:31
(UTC+00:00)
Language:

Vela 5A - Orbit

View from above orbital plane
View from above orbital plane
View from above satellite
View from above satellite

Ground track
Ground track

The orbit data is extracted from the following two-line orbital elements,

1 03954U 69046D   15212.18044046  .00000702  00000-0  00000+0 0  9992
2 03954 054.7046 263.6047 6874422 086.4791 359.9889 00.21513009 36275
Epoch (UTC): 31 July 2015 04:19:50
Eccentricity: 0.6874422
inclination: 54.7046°
perigee height: 30395 km
apogee height: 192151 km
right ascension of ascending node: 263.6047°
argument of perigee: 86.4791°
revolutions per day: 0.21513009
mean anomaly at epoch: 359.9889°
orbit number at epoch: 3627

The dashed part of the orbit path shows where the satellite is in the earth's shadow,  

DLR